Location: Centerville
(32.8776°N, 96.6203°W)
Time: 00:45:24
(UTC+00:00)

USA 267 - Pass Details

Date: 17 June 2021
Orbit: 1102 x 1106 km, 123.0° (Epoch: 01 August)

Event Time Altitude Azimuth Distance (km) Brightness Sun altitude
Exits shadow 07:09:00 67° 306° (NW) 1,187 3.3 -32.9°
Drops below altitude 10° 07:14:33 10° 317° (NW) 2,961 5.9 -32.6°
Sets 07:17:02 0° 318° (NW) 3,922 6.6 -32.5°
